sat.trackr.live / text

‹ back to catalog

STARLINK-31788

NORAD 60055 · 2024-112T

PAYLOAD ACTIVE UNKNOWN

§ Identity

Operator
Country
US
Launch date
2024-06-08
Launch site
AFWTR
Launch vehicle
Mass (kg)
RCS (m²)

Purposes: comms

External: N2YO · Heavens-Above · Gunter

§ Orbital elements

Epoch: 2026-05-25T02:25:40.378656Z

Period
94.11 min
Inclination
53.1610°
Eccentricity
0.0001424
Mean motion
15.30192870 rev/d
Perigee alt
474.3 km
Apogee alt
476.2 km
Semi-major
6,853.4 km
B*
3.5478e-5
RAAN
83.2047°
Arg perigee
85.4749°
Mean anomaly
274.6415°
Rev number
11,029

§ Raw data

STARLINK-317881 60055U 24112T   26145.10116179  .00000691  00000+0  35478-4 0  99962 60055  53.1610  83.2047 0001424  85.4749 274.6415 15.30192870110294

JSON: /api/v1/satellites/60055 · /tle

For live sub-satellite position, see the globe view (requires WebGL).

§ Visibility from observer

Set your observer location to see the next 7 days of passes ≥ 10°. The values pass through the URL so the page stays shareable.

No JS? Fill the form by hand. The geolocation button needs JavaScript.